Showing default

OPS 4947 (TRANSIT 17), 2965

Orbit data source: Space-Track

OPS 4947 (TRANSIT 17), 2965 is a payload satellite owned by USN NAVAIR (US) in LEO that was launched on Mon, 25 Sep 1967 UTC via an SCOUT A launch vehicle from the Air Force Western Test Range (AFWTR). Payload-class satellites include a variety of spacecraft equipped with specific instruments for various scientific and technological missions. These include communications satellites like Starlink; space stations such as the ISS; scientific satellites like the Hubble; Earth observation satellites from companies like Planet Labs, Umbra, and HawkEye 360; GPS; miniature CubeSats for education and research; and military/defense satellites.

Loading next visibility...
Identifier
2965, 1967-092A
Orbit
LEO
Country
Flag of USUS
Related business
Manufacturer
APL
Mission
Spacecraft
Bus & Motor
TRANSIT 5, Unknown motor
Mass
~50 kg wet, ~50 kg dry
Launch date (UTC)
1967-09-25 (59 years ago)
Launch vehicle
SCOUT A
Launch site
Air Force Western Test Range (AFWTR)
Object type
Payload
Rocket body
Debris
Shape & HBR
Unknown
Radar Cross Section
Large (>1 m²)

Expand to show TLE details & history
Last TLE update: 6 hours ago

TLE from 6 hours ago
0 OPS 4947 (TRANSIT 17)
1 02965U 67092A   26101.22450168  .00000116  00000-0  15600-3 0  9997
2 02965  89.2591  15.3641 0045612 248.5389 264.7650 13.53486365887136
Epoch: 2026-04-11T05:23Z
TLE epoch observation values (Epoch: 2026-04-11T05:23:16.945Z)
Latitude
27.24991°
Longitude
-85.28303°
Altitude
1,066.099 km
Speed
7.32 km/s
True Right ascension
12h 59m 56s
True Declination
27° 06' 57"
Sunlit
Object was in full shadow at epoch
Visualization orbit readout
Latitude
Unknown
Longitude
Unknown
Altitude
Unknown
Speed
Unknown
Apparent Right ascension
Unknown
Apparent Declination
Unknown
Sunlit
N/A
Visualization observer readout
Local Sidereal Time
17:49:08
Azimuth
Unknown
Elevation
Unknown
Doppler factor
Unknown
Orbital elements
Apogee altitude
1,090.416 km
Perigee altitude
1,022.594 km
Semi-major axis
7,434.642 km
Eccentricity
0.00456
Inclination
89.2591°
RAAN
15.3641°
Arg. of periapsis
248.5389°
True anomaly
264.24478°
Mean anomaly
264.765°
Eccentric anomaly
264.50486°
Mean motion
3.38574 °/min
Orbital period
106.33 mins
BSTAR
0.000156
Loading maneuver chart data...
Computing Atmospheric mass density...
Loading historical data...
Loading historical data...
Loading historical data...
Loading historical data...
Loading historical data...
Loading historical data...
Loading historical data...

Documentation

Showing up to 5 results
|